This is the latest recevied weather packets stored in our database for station/object W9WRP. If no packets are shown the sender has not sent any weather packets the latest 10 day(s).
| Time | Temp. | Humidity | Pressure | Rain* | Wind** | Luminosity | Snow |
|---|---|---|---|---|---|---|---|
| 1787926531 | 33.33° C | 28% | 1016.3 hPa | 0 mm | - | 49 W/m² | - |
| 1787926230 | 32.78° C | 29% | 1016.1 hPa | 0 mm | - | 54 W/m² | - |
| 1787925924 | 32.78° C | 29% | 1016.1 hPa | 0 mm | - | 47 W/m² | - |
| 1787925619 | 32.22° C | 30% | 1015.7 hPa | 0 mm | - | 40 W/m² | - |
| 1787925314 | 32.22° C | 29% | 1015.9 hPa | 0 mm | - | 37 W/m² | - |
| 1787925013 | 32.22° C | 29% | 1015.9 hPa | 0 mm | - | 33 W/m² | - |
| 1787924708 | 32.22° C | 29% | 1016.1 hPa | 0 mm | - | 29 W/m² | - |
| 1787924403 | 31.67° C | 29% | 1016 hPa | 0 mm | - | 25 W/m² | - |
| 1787924097 | 32.22° C | 29% | 1015.6 hPa | 0 mm | - | 20 W/m² | - |
| 1787923792 | 32.22° C | 29% | 1015.7 hPa | 0 mm | - | 18 W/m² | - |
| 1787923487 | 31.67° C | 29% | 1015.8 hPa | 0 mm | - | 15 W/m² | - |
| 1787923183 | 31.67° C | 30% | 1015.8 hPa | 0 mm | - | 12 W/m² | - |
| 1787922878 | 31.11° C | 31% | 1015.8 hPa | 0 mm | - | 9 W/m² | - |
| 1787922577 | 31.11° C | 31% | 1015.6 hPa | 0 mm | - | 6 W/m² | - |
| 1787922276 | 31.11° C | 30% | 1015.5 hPa | 0 mm | - | 3 W/m² | - |
| 1787921972 | 31.11° C | 30% | 1015.6 hPa | 0 mm | - | 2 W/m² | - |
| 1787921668 | 31.67° C | 30% | 1015.5 hPa | 0 mm | - | 1 W/m² | - |
| 1787921367 | 31.67° C | 29% | 1015.4 hPa | 0 mm | - | 0 W/m² | - |
| 1787921063 | 31.67° C | 29% | 1015.3 hPa | 0 mm | - | 0 W/m² | - |
| 1787920763 | 31.67° C | 28% | 1015.3 hPa | 0 mm | - | 0 W/m² | - |
| 1787920463 | 31.67° C | 28% | 1015.3 hPa | 0 mm | - | 0 W/m² | - |
| 1787920160 | 31.67° C | 28% | 1015 hPa | 0 mm | - | 0 W/m² | - |
| 1787919855 | 31.67° C | 28% | 1014.9 hPa | 0 mm | - | 0 W/m² | - |
| 1787919554 | 31.67° C | 28% | 1015.1 hPa | 0 mm | - | 0 W/m² | - |
| 1787919250 | 32.22° C | 28% | 1014.9 hPa | 0 mm | - | 0 W/m² | - |
* Rain latest hour (hover to see other rain measurements)
** Current wind speed in m/s (hover to see current wind gust speed)